Miscellaneous Local Product
Issued by NWS Hastings, NE

Home | Current Version | Previous Version | Graphics & Text | Print | Product List | Glossary On
Versions: 1 2 3 4 5 6 7 8 9 10 11 12 13 14 15 16 17 18 19 20 21 22 23 24 25 26 27 28 29 30 31 32 33 34 35 36 37 38 39 40 41 42 43 44 45 46 47 48 49 50
212
AXUS43 KGID 281102
MISGRI

GID CWA HOURLY WEATHER ROUNDUP
NATIONAL WEATHER SERVICE HASTINGS NE
600 AM CDT THU APR 28 2016

NOTE: "FAIR" INDICATES FEW OR NO CLOUDS BELOW 12,000 FEET WITH NO
SIGNIFICANT WEATHER AND/OR OBSTRUCTIONS TO VISIBILITY.

...SOUTH CENTRAL NEBRASKA...

CITY           SKY/WX    TMP DP  RH WIND       PRES   REMARKS
GRAND ISLAND   CLOUDY    40  37  89 NW18G25   29.85R WCI  31
HASTINGS       CLOUDY    39  35  86 NW16      29.86R WCI  30
KEARNEY        CLOUDY    37  34  87 NW14      29.89R WCI  29
ORD            CLOUDY    40  38  93 NW15      29.85R WCI  32
YORK           CLOUDY    43  41  93 NW16      29.82R
AURORA         CLOUDY    41  40  97 NW17      29.84R FOG
LEXINGTON      CLOUDY    35  32  88 NW13      29.91R WCI  26
HOLDREGE       PTCLDY    35  32  89 NW12      29.89R WCI  27
HEBRON         CLOUDY    42  39  88 NW14G20   29.83R

...NEBRASKA PANHANDLE...

CITY           SKY/WX    TMP DP  RH WIND       PRES   REMARKS
CHADRON        CLOUDY    33  30  88 N5        29.97R WCI  29
ALLIANCE       CLOUDY    31  28  89 N12       29.94R WCI  22
SCOTTSBLUFF    CLOUDY    33  28  81 N5        29.95S WCI  29
SIDNEY         CLEAR     25  23  92 NW12      29.94S WCI  14

...WESTERN AND NORTH CENTRAL NEBRASKA...

CITY           SKY/WX    TMP DP  RH WIND       PRES   REMARKS
VALENTINE      CLOUDY    33  32  96 NW14      29.92R FOG     WCI  23
AINSWORTH      CLOUDY    34  34  99 NW14      29.90R FOG     WCI  25
ONEILL         LGT RAIN  41  40  95 N10       29.85R
BROKEN BOW     CLOUDY    35  33  92 NW12G21   29.88R WCI  27
IMPERIAL       CLEAR     32  28  85 NW10      29.94R WCI  24
NORTH PLATTE   CLEAR     31  29  92 W9        29.93R WCI  23
MCCOOK         CLEAR     32  28  85 W10       29.92R WCI  24

...EASTERN NEBRASKA...

CITY           SKY/WX    TMP DP  RH WIND       PRES   REMARKS
NORFOLK        LGT RAIN  41  40  96 N13       29.80R FOG
SO SIOUX CITY  LGT RAIN  44  41  89 N7        29.78R
TEKAMAH        LGT RAIN  45  43  93 N13       29.75R
COLUMBUS       CLOUDY    43  36  75 NW16      29.81R
ALBION         CLOUDY    42  40  93 NW13G20   29.82R
OMAHA EPPLEY   CLOUDY    47  45  93 N5        29.73R
OFFUTT AFB     CLOUDY    47  47  99 NW9       29.72R
MILLARD        CLOUDY    48  47  93 NW9       29.73R
LINCOLN        CLOUDY    48  43  82 NW16      29.79R
NEBRASKA CITY  CLOUDY    47  47  97 NW15G24   29.74R
BEATRICE       CLOUDY    45  43  95 NW15G23   29.78R
FALLS CITY     CLOUDY    47  45  93 W16       29.75R

...NORTHERN KANSAS...

CITY           SKY/WX    TMP DP  RH WIND       PRES   REMARKS
GOODLAND       CLOUDY    37  32  82 NW13      29.92S WCI  29
HILL CITY      CLOUDY    37  31  78 NW10      29.93R WCI  30
NORTON         MOSUNNY   34  28  80 W14       29.90R WCI  24
PHILLIPSBURG   CLEAR     37  32  81 W13       29.91R WCI  29
SMITH CENTER   CLEAR     34  30  86 W10       29.89R WCI  26
BELOIT         CLEAR     36  32  87 W6        29.88R WCI  31
HAYS           CLOUDY    41  27  56 NW14      29.93R
RUSSELL        PTCLDY    39  32  76 NW16      29.90R WCI  30
CONCORDIA      MOCLDY    38  33  82 W10       29.86R WCI  31
SALINA         CLEAR     42  35  76 NW15      29.88R
TOPEKA         PTCLDY    46  38  73 W8        29.82R



USA.gov is the U.S. government's official web portal to all federal, state and local government web resources and services.